Theta_e
341 342 342 344 344 348 349 351 353 354 357 356 356 356 358 358 358 358 358 358 359 357 356 352 353 354 354 352 353 356 359 359 357 358 358 359 360 363 367 365 371 369 367 365 366 365 364 363 362 361 361 363 362 362 361 360 365 364 360 368 359 358 355 348 348 349 346 343 349 344 347 348 349 352 348 347 347 346 347 349 350 354 354 349 355
341 341 341 344 344 348 349 351 353 353 357 357 357 357 358 358 357 358 361 358 358 357 356 355 356 354 351 351 353 354 355 353 355 357 356 360 366 364 367 366 368 369 368 371 365 366 366 363 363 364 365 366 366 366 365 365 364 365 361 368 361 352 349 349 348 352 343 337 338 341 344 346 349 346 346 345 346 346 348 351 355 346 347 347 352
339 340 341 342 344 347 349 351 352 354 356 355 359 358 359 358 360 362 362 360 360 361 359 360 360 358 355 353 354 354 357 357 355 356 359 358 363 365 368 369 370 370 371 370 368 367 365 366 362 365 363 364 364 361 365 362 365 360 363 362 354 351 348 350 355 355 338 340 344 342 336 337 343 344 344 345 344 345 345 346 346 344 346 348 351
339 340 340 341 345 347 347 350 352 353 355 355 357 358 358 358 362 362 362 362 362 361 362 363 362 363 362 358 358 357 355 358 360 359 360 357 359 363 367 368 368 365 365 365 363 367 366 367 363 363 362 366 363 361 361 361 362 367 363 360 361 353 345 346 352 357 354 344 339 337 337 335 332 337 340 342 343 343 341 340 343 343 346 349 352
340 340 341 341 343 344 346 350 352 351 352 354 357 356 355 359 362 363 361 363 364 363 364 364 364 363 363 362 361 361 360 360 358 355 357 357 358 360 362 365 367 362 363 362 364 366 368 367 369 365 363 365 364 364 364 360 360 360 364 364 360 359 343 346 351 354 356 356 351 341 337 335 333 334 337 340 340 340 343 342 346 344 345 351 344
341 340 340 341 342 344 346 348 348 351 352 353 356 356 358 360 363 364 361 363 364 364 368 366 362 361 358 355 354 354 353 354 354 354 354 354 359 362 362 360 364 363 364 364 363 365 366 367 368 365 365 364 364 360 363 360 362 363 364 360 362 360 356 347 342 355 351 354 351 349 351 342 342 340 336 335 348 339 340 342 346 344 342 347 348
340 340 340 339 341 343 345 346 347 350 353 354 355 357 361 361 362 364 362 363 365 366 369 366 363 361 358 354 353 353 353 355 358 356 357 355 357 355 360 363 365 362 364 365 364 367 368 366 368 367 363 368 363 363 367 361 358 359 364 366 365 365 361 354 345 343 351 352 349 349 351 352 350 346 334 337 336 343 342 339 340 343 344 345 345
337 338 338 340 341 343 344 346 346 347 350 353 354 355 361 363 363 363 364 363 365 366 368 368 365 364 360 356 355 353 352 355 358 357 358 357 356 356 357 361 364 364 363 368 368 368 368 367 368 366 367 362 362 363 362 362 366 367 367 367 371 366 361 358 354 348 345 347 352 351 349 349 353 349 352 346 343 337 338 340 339 341 343 343 345
337 337 338 339 340 342 344 345 347 347 348 350 352 356 358 362 363 367 364 366 366 367 367 368 367 366 363 360 356 356 355 356 361 360 358 360 358 358 360 360 363 366 364 365 368 368 369 368 369 367 364 363 365 363 362 363 369 370 368 370 369 369 363 357 358 355 351 347 354 355 354 354 347 348 351 350 347 338 333 340 339 342 343 343 345
337 338 338 340 341 342 344 346 347 347 349 350 351 356 357 361 363 364 366 366 367 368 369 367 370 367 364 361 360 357 357 357 357 358 362 362 361 362 363 361 359 364 367 368 368 369 367 368 365 364 363 364 360 365 365 366 365 367 366 367 366 371 364 360 355 356 356 354 357 355 355 352 352 350 346 343 342 346 339 335 339 340 338 341 348
336 337 339 340 341 342 343 344 346 347 349 350 349 355 357 358 357 362 365 365 367 366 368 367 370 368 366 366 363 361 361 361 358 360 362 360 361 361 362 362 360 358 360 364 365 366 367 367 365 361 364 365 363 365 361 360 359 363 364 366 369 367 364 362 359 359 358 357 353 355 353 349 346 348 346 346 346 343 344 342 341 338 340 335 342
336 337 338 340 341 342 344 345 346 348 349 350 350 352 356 358 359 361 364 366 368 366 368 365 365 365 366 365 365 367 365 361 364 361 363 359 362 360 361 360 361 360 362 360 359 362 366 363 366 365 365 363 361 365 366 363 362 364 366 366 367 367 366 365 364 358 356 358 353 348 348 350 349 350 348 349 351 347 346 342 342 343 343 344 344
336 337 338 338 339 340 341 345 347 349 349 350 348 349 354 357 360 360 361 366 361 365 366 365 365 365 367 366 365 369 367 365 365 365 364 364 360 361 365 363 361 362 358 360 358 360 365 366 365 364 366 364 369 367 364 365 367 364 368 365 367 365 367 364 365 361 357 358 354 352 350 351 348 350 347 347 348 349 346 345 345 343 340 343 346
337 336 337 339 341 341 342 345 345 346 348 349 348 350 352 355 359 359 360 364 367 363 364 367 366 367 367 366 366 365 366 367 364 361 362 362 363 361 361 359 361 361 358 360 359 359 361 362 364 365 368 368 366 367 368 365 365 366 365 365 365 365 370 365 362 362 360 359 359 355 353 351 350 351 350 344 348 347 348 347 348 348 341 341 347
338 338 337 338 340 341 342 344 345 346 347 348 348 349 352 354 357 359 360 362 364 365 366 367 365 367 366 367 366 364 364 361 360 360 362 361 361 361 362 360 360 361 361 363 365 362 361 364 361 362 365 368 366 366 364 365 368 365 368 367 369 368 365 364 364 360 355 357 355 356 354 353 351 348 349 352 352 351 351 351 351 346 345 340 340
336 338 338 339 341 341 342 343 346 347 349 348 348 350 350 353 358 358 360 360 362 365 365 365 365 366 367 367 366 364 365 362 362 365 366 363 363 362 362 365 363 362 364 366 363 365 366 364 363 362 366 365 367 367 366 364 366 365 365 368 362 362 366 365 363 360 356 356 353 354 351 348 353 351 353 353 354 356 353 353 353 351 347 343 343
337 338 338 339 340 341 342 344 346 346 346 347 350 351 352 353 355 357 358 359 360 363 362 366 367 366 367 367 366 366 364 362 361 361 359 361 364 363 362 360 362 365 363 366 363 363 365 363 361 358 364 367 366 367 365 365 368 365 364 365 364 363 367 367 364 364 360 356 356 354 353 352 350 355 355 354 356 358 354 354 352 350 354 346 343
338 340 341 340 342 342 342 344 346 345 346 346 349 350 352 353 353 355 356 356 357 359 359 361 363 363 363 365 366 365 363 361 361 360 362 361 363 362 363 361 361 359 362 359 364 363 365 364 362 362 362 363 365 363 364 364 367 364 366 368 366 366 369 368 365 362 364 363 359 355 353 351 354 355 353 353 356 359 354 354 353 355 356 351 349
337 339 339 339 340 342 343 344 344 345 346 346 347 347 349 350 350 351 352 354 354 353 356 358 359 359 361 361 363 366 365 363 360 362 361 362 360 358 360 361 360 363 361 368 366 366 363 362 364 363 365 365 364 365 365 364 366 363 364 363 364 367 363 362 365 363 359 360 361 358 358 354 356 353 354 352 354 354 354 353 353 355 354 356 354
338 338 338 338 340 340 341 343 342 343 344 344 344 345 346 347 348 348 349 352 354 351 354 355 355 355 356 361 364 365 366 362 365 365 360 360 361 359 359 358 359 361 362 363 364 364 361 359 358 360 358 360 363 362 363 364 364 363 362 362 363 366 363 363 362 363 361 362 365 362 362 360 359 359 358 355 354 356 354 352 351 352 354 357 358
338 338 340 338 339 340 342 342 343 345 345 344 342 343 345 345 346 346 348 349 349 349 351 354 354 354 355 356 358 361 362 363 363 363 361 362 361 362 359 360 360 360 362 361 359 364 365 362 360 359 360 363 364 362 364 366 365 365 365 367 369 371 367 363 365 363 361 363 364 362 362 363 365 361 359 356 353 352 354 353 354 353 351 355 356
341 341 341 339 339 339 340 342 344 344 345 343 343 343 343 344 349 348 350 348 348 347 351 353 354 353 353 354 354 358 359 360 361 362 362 361 361 361 362 362 359 360 363 362 363 362 365 364 363 362 363 364 367 370 366 366 366 365 365 362 361 366 368 364 365 368 366 361 363 365 363 362 363 361 358 355 355 351 350 350 351 350 352 355 359
344 343 343 343 344 343 340 341 343 343 344 343 344 344 345 345 347 349 349 351 350 350 351 353 352 353 354 352 352 354 355 357 357 360 357 359 360 361 362 361 359 359 362 362 362 360 362 365 363 364 367 367 370 367 366 365 365 368 367 364 360 362 363 361 362 362 361 363 361 362 360 360 356 356 357 356 354 353 353 352 352 353 354 353 354
345 345 341 340 343 345 348 348 347 344 345 344 344 344 344 350 350 348 351 350 348 352 353 358 357 353 352 352 353 352 351 353 352 355 357 357 358 360 363 361 359 358 358 362 362 361 363 366 364 367 368 367 369 367 364 365 368 368 367 366 366 366 366 366 364 365 365 365 364 364 360 357 358 358 359 360 358 355 357 359 358 359 358 357 360
347 345 342 344 346 348 350 351 352 350 346 348 346 344 344 349 355 350 352 353 353 354 354 355 357 355 353 351 351 349 349 350 349 351 352 354 355 356 359 360 361 357 358 357 362 362 364 367 361 365 368 367 367 367 366 364 364 365 366 365 365 367 363 364 364 366 366 366 366 365 362 361 360 357 358 357 358 361 362 360 359 360 362 361 362
346 347 347 344 349 355 353 352 353 351 353 355 355 353 352 351 354 357 357 356 356 354 354 356 356 354 354 353 352 349 347 348 347 346 347 349 352 356 356 357 359 356 358 357 358 360 362 365 364 364 365 367 367 367 367 366 362 363 363 364 366 366 365 365 364 361 361 362 361 361 359 360 359 358 358 358 363 363 364 359 357 359 361 363 363
347 348 350 350 351 354 355 355 354 354 356 356 354 354 355 354 354 358 363 365 360 357 359 360 358 355 356 354 353 352 350 347 346 346 346 347 348 349 352 356 355 354 356 355 356 359 361 363 365 364 363 365 367 366 369 370 366 363 363 364 361 362 363 362 363 361 360 361 361 360 362 362 362 361 358 359 361 363 361 362 364 365 364 362 360
346 347 347 348 350 349 350 352 353 355 357 360 358 358 357 359 360 364 365 366 364 363 363 365 365 357 357 355 355 355 352 351 349 352 349 347 347 347 348 349 351 352 351 355 355 354 357 360 363 361 363 363 366 366 369 369 366 365 361 361 362 360 360 361 360 361 360 357 358 358 357 360 360 362 362 361 361 360 363 364 364 364 366 366 363
342 344 345 344 347 349 349 348 349 352 351 351 354 357 358 360 363 363 363 364 365 365 366 367 366 362 361 359 357 357 357 355 351 351 350 349 349 349 349 350 351 349 348 350 351 353 354 355 358 360 359 360 359 362 365 368 366 367 367 362 359 361 359 361 360 359 359 358 357 356 356 356 364 364 367 370 369 365 359 361 362 362 362 359 359
341 343 344 345 346 347 351 351 353 352 351 349 351 355 357 358 361 361 361 363 365 365 366 365 365 364 364 366 362 360 359 359 355 353 355 353 352 351 349 349 349 349 352 355 354 352 352 354 354 359 358 357 356 356 370 364 367 366 365 362 361 363 360 359 359 359 356 357 356 356 355 357 362 362 365 368 364 363 366 362 361 365 364 364 362
342 344 344 347 347 348 349 350 352 352 352 353 353 355 355 356 358 359 360 362 363 364 365 364 363 363 365 367 366 365 362 360 361 358 360 360 358 354 354 355 353 353 354 357 354 352 350 351 353 355 356 355 356 351 342 338 343 353 362 363 362 361 359 361 358 358 358 354 353 352 354 363 367 371 368 371 367 363 362 358 357 361 366 363 358
340 342 345 345 347 347 348 348 349 351 352 353 353 354 353 353 355 356 358 360 360 360 359 363 364 364 365 367 368 368 367 366 364 362 363 365 363 364 360 361 358 357 359 357 355 355 356 354 352 352 353 354 350 333 330 333 337 338 350 363 357 355 353 355 353 350 355 355 353 352 352 351 352 357 357 366 370 366 359 359 357 356 355 356 358
340 341 342 343 344 345 347 348 348 349 350 352 353 353 354 355 354 356 357 357 358 358 358 358 361 363 365 366 368 367 367 367 368 369 370 363 372 371 372 369 365 363 361 360 359 357 357 356 353 352 350 349 349 329 327 329 332 332 335 352 355 355 352 351 352 353 354 355 354 356 356 354 348 365 364 361 367 371 363 357 358 357 357 354 343
339 340 340 342 343 344 344 346 349 349 349 350 351 352 354 355 355 357 356 356 355 355 356 356 358 359 361 362 363 360 359 360 363 364 359 368 367 368 366 366 366 366 363 361 358 358 357 358 356 354 355 356 347 327 324 325 328 329 331 338 355 354 353 350 351 352 352 355 355 356 357 354 356 357 368 367 366 367 369 372 370 370 369 369 355
338 338 339 340 340 341 343 344 345 345 346 347 347 349 350 351 352 353 355 355 355 355 356 357 357 358 358 358 359 351 352 354 355 360 361 363 355 362 365 367 367 365 363 363 360 358 358 358 356 352 357 345 332 318 320 321 322 324 328 338 356 354 350 348 348 349 356 355 359 357 359 357 360 357 346 347 362 366 367 364 364 362 361 362 362
336 336 337 338 339 340 342 342 343 343 344 345 345 345 345 346 348 349 352 353 353 354 354 355 355 356 357 357 357 355 355 354 356 357 359 360 360 362 362 363 363 364 366 365 364 361 360 359 358 359 355 345 332 315 317 317 318 321 325 356 361 359 355 352 350 355 358 361 361 361 360 362 359 350 332 330 339 355 360 359 360 362 362 358 355
336 336 337 341 342 342 342 342 343 342 342 342 343 343 342 342 343 346 349 350 351 350 352 355 354 352 350 351 350 350 354 351 354 355 353 355 355 354 352 353 355 356 357 359 358 356 351 352 356 355 345 342 335 319 313 313 316 316 336 360 362 361 362 361 360 358 353 357 359 362 360 360 354 345 327 321 326 345 359 360 361 360 360 360 359
336 338 337 338 341 341 342 342 342 342 342 343 343 343 343 342 342 343 344 344 345 346 348 348 349 351 351 349 350 351 351 352 353 353 352 353 354 352 352 354 354 353 353 352 347 346 347 349 349 348 343 338 333 321 312 311 313 313 331 356 358 363 360 360 363 360 358 354 354 357 352 349 347 342 319 319 320 342 356 359 359 357 357 357 358
338 337 336 337 339 339 339 341 341 340 343 344 344 343 340 340 341 342 343 343 344 345 346 347 347 349 350 351 351 351 350 349 348 349 349 348 348 349 349 351 349 348 348 350 348 345 344 345 344 341 341 335 332 328 314 312 312 312 331 355 361 354 354 360 360 355 354 354 351 347 344 336 338 329 315 317 319 336 350 354 357 356 354 354 355
336 336 337 338 339 338 337 338 338 339 341 343 343 342 342 342 342 342 340 340 341 343 345 345 347 348 349 350 349 348 348 347 346 345 346 346 348 348 346 343 343 343 343 347 348 346 342 341 341 340 338 335 333 330 323 311 310 313 316 348 354 353 354 354 350 354 349 351 353 348 340 322 318 316 314 312 314 316 340 349 352 354 352 351 351
332 332 336 336 336 335 335 335 336 338 338 339 339 340 340 341 341 341 339 339 341 342 344 344 345 346 346 347 347 346 344 344 343 341 342 342 342 339 339 339 339 339 341 342 341 339 337 337 337 337 336 335 334 332 327 312 310 311 314 328 346 344 345 346 348 351 349 350 350 349 341 326 316 314 312 310 310 314 320 344 351 349 347 343 335
333 334 334 332 332 332 333 333 334 335 336 338 339 338 338 338 337 337 339 341 342 342 343 344 344 344 344 344 343 343 342 342 341 339 338 337 337 338 337 337 340 338 337 336 337 336 334 332 332 333 333 333 332 331 330 319 312 310 311 314 333 336 335 348 345 345 346 344 345 347 339 329 315 313 311 312 313 317 321 348 345 316 313 318 345
330 331 331 330 329 328 329 330 331 332 334 336 337 336 335 335 335 336 337 338 338 340 340 340 341 340 340 341 341 340 339 339 339 340 337 335 336 336 336 336 335 334 335 334 335 336 334 333 332 333 332 331 330 329 327 327 316 310 310 312 313 324 321 346 344 341 340 340 344 342 340 330 314 308 308 313 315 319 330 334 312 313 316 318 330
329 328 329 329 328 327 326 329 329 331 333 334 335 334 334 334 333 337 337 338 338 338 339 339 337 337 336 337 336 337 337 337 337 336 339 335 335 335 335 335 335 333 332 331 335 334 333 331 330 329 330 332 331 330 328 328 325 314 312 310 312 313 315 331 335 331 329 327 329 329 330 313 307 303 306 313 317 326 333 316 313 316 321 333 348
327 328 332 330 327 328 326 328 329 330 331 333 334 333 334 332 333 336 335 335 336 337 336 336 336 336 334 332 332 333 334 336 336 335 335 334 334 336 334 335 335 333 333 332 332 331 331 330 330 328 330 331 332 332 332 333 329 326 316 314 315 316 317 317 331 328 330 327 323 315 311 309 310 309 311 314 315 324 322 319 319 319 338 344 343
327 327 329 328 328 328 327 325 327 328 329 332 333 334 331 332 333 334 334 334 335 335 334 334 334 334 333 333 331 330 330 331 332 333 334 333 334 334 333 333 333 332 332 332 332 328 329 329 328 329 330 331 333 335 335 333 332 331 329 322 320 322 329 330 330 325 330 323 318 314 314 314 317 322 338 336 333 334 328 327 326 333 341 339 337
327 328 328 328 327 325 324 324 324 325 326 328 328 329 331 332 332 331 333 334 334 333 332 332 331 329 333 331 329 327 327 330 328 327 329 331 330 332 333 334 333 333 334 332 330 331 329 328 327 328 329 329 330 330 330 330 331 331 330 331 333 331 331 330 326 325 328 329 331 328 325 320 319 321 324 328 334 332 337 332 332 329 335 333 331
327 327 326 326 325 325 325 325 326 325 326 325 324 326 328 329 329 330 331 333 333 331 329 329 328 328 329 329 329 329 329 327 328 328 327 328 328 329 329 327 326 328 328 331 331 330 329 327 326 327 328 327 327 327 328 327 324 323 327 328 326 325 326 326 322 324 325 329 332 334 328 334 336 335 334 332 331 331 329 329 330 325 329 330 329
325 324 324 324 325 325 325 324 324 326 327 325 325 324 326 328 327 330 333 331 329 329 329 328 328 327 326 329 328 329 328 327 329 328 325 321 322 327 327 323 320 318 320 327 329 328 328 327 328 327 327 327 326 323 320 309 314 304 312 321 320 320 319 321 323 311 322 329 332 330 327 325 325 323 323 324 323 324 324 326 327 325 327 326 325
324 324 324 323 323 324 323 323 323 324 324 324 325 326 327 325 327 329 329 331 330 329 328 327 327 326 326 326 327 326 327 325 325 326 324 321 312 301 310 324 321 310 302 301 307 317 319 328 324 321 321 323 321 318 303 298 297 297 297 298 299 297 296 307 307 303 314 326 328 326 323 322 322 323 322 322 321 323 324 323 324 324 324 324 323
323 322 320 321 321 322 323 323 323 323 323 324 324 326 327 328 329 327 327 329 330 328 327 327 327 326 325 326 325 325 326 326 326 325 325 323 321 317 298 299 306 305 301 296 296 298 300 304 323 321 314 303 303 300 297 296 298 298 295 294 294 294 295 295 297 312 325 327 324 323 322 323 322 324 322 321 322 323 323 323 324 323 324 324 323
Wind_Speed
14 14 14 13 13 12 11 11 10 11 10 11 10 10 9 9 9 9 10 10 8 7 7 7 6 6 6 6 5 5 4 4 4 5 5 5 6 6 4 4 4 4 4 3 2 1 2 5 7 3 2 0 0 2 4 3 2 2 2 2 4 3 2 3 2 3 4 3 3 5 5 4 4 6 6 6 6 5 4 2 3 2 3 4 5
15 14 14 13 13 13 12 11 12 12 11 11 11 10 9 10 10 9 8 8 8 7 6 6 6 6 6 6 6 6 5 5 4 5 5 7 5 5 4 5 4 4 4 3 3 2 3 5 7 3 1 1 2 0 1 1 1 2 2 3 3 1 2 4 4 4 5 5 5 4 4 4 5 6 8 6 4 4 4 3 4 7 5 7 4
15 15 15 13 15 14 11 11 11 12 13 13 11 11 9 9 9 9 8 8 7 8 6 6 5 5 5 5 5 6 5 5 5 4 5 6 6 5 4 5 4 4 4 4 3 4 4 6 8 5 1 2 2 3 2 1 2 1 1 4 5 3 4 3 3 5 3 3 3 4 4 5 3 2 2 5 6 5 7 6 6 6 8 5 5
16 16 15 14 14 13 12 11 12 11 12 12 12 12 10 9 9 8 8 8 7 8 7 7 6 5 4 7 6 5 5 4 5 5 5 7 5 5 5 5 5 6 6 6 5 3 4 5 5 6 2 2 2 2 4 4 2 3 6 6 2 7 4 6 4 5 6 1 5 2 5 6 5 5 5 3 3 6 8 7 5 7 8 4 6
15 16 15 15 15 14 13 12 12 12 12 12 12 12 9 11 10 9 9 8 8 8 7 7 7 6 5 5 4 5 5 5 5 6 6 3 7 6 7 5 7 5 6 5 4 4 4 3 6 7 4 2 6 4 3 5 4 2 4 4 2 5 4 5 5 5 5 4 3 1 3 3 4 6 4 1 4 5 6 5 2 9 8 3 6
15 16 15 16 15 15 13 13 13 12 12 12 12 12 12 11 11 10 8 8 8 9 9 7 7 7 7 6 6 6 6 6 6 7 7 8 6 3 3 8 5 5 4 3 4 5 4 3 3 6 7 6 2 2 2 5 5 7 3 2 5 4 6 3 5 3 5 3 4 5 2 3 4 4 2 1 4 6 5 5 4 6 7 8 5
14 14 15 16 15 15 14 14 13 12 12 12 12 12 13 12 12 10 9 8 8 9 9 7 8 7 7 7 6 7 7 6 6 6 6 6 12 7 6 7 5 6 5 4 5 4 4 3 4 4 4 5 5 3 0 3 6 2 2 2 2 4 4 5 2 5 2 3 2 4 5 4 4 2 4 2 1 5 2 7 5 4 6 7 8
15 16 15 15 15 15 14 14 13 13 12 12 12 12 13 13 12 11 9 9 8 9 9 7 7 7 8 7 7 6 7 6 5 3 5 4 6 10 8 6 7 4 2 1 4 4 4 4 3 5 5 4 3 5 3 3 0 1 2 2 2 3 3 4 6 6 3 3 6 4 5 4 3 4 4 3 2 3 1 2 6 6 6 5 7
15 15 15 16 15 15 14 14 13 13 12 12 11 12 13 12 12 11 10 9 9 10 9 8 7 6 6 6 6 5 6 6 7 6 5 4 6 5 5 7 6 6 8 6 4 4 4 4 4 3 2 3 4 2 3 3 2 1 0 1 2 2 2 3 4 4 5 4 3 4 5 3 3 2 3 2 3 1 3 2 4 2 5 4 4
15 16 16 15 15 15 15 14 13 12 12 12 12 12 13 12 12 12 11 9 9 11 9 9 7 7 6 6 7 6 6 6 6 6 5 5 6 6 5 5 6 6 5 6 5 4 4 4 4 4 3 3 2 3 3 4 3 2 1 2 2 3 2 1 2 3 3 3 3 2 2 2 3 1 1 2 1 2 3 3 3 4 2 3 2
14 15 15 15 15 15 15 15 13 12 11 12 12 12 12 12 13 13 12 9 11 11 10 9 8 8 7 7 7 7 7 6 7 6 5 5 5 6 5 5 5 6 6 6 6 6 5 4 5 5 3 3 2 2 3 4 4 4 2 2 1 1 1 2 1 1 1 3 1 2 4 3 2 2 3 3 4 3 4 7 9 4 2 5 1
16 15 16 16 16 15 14 14 14 13 12 13 12 12 12 12 13 13 12 11 11 10 10 10 8 8 7 7 7 6 7 6 6 7 6 6 5 5 5 5 4 4 6 5 6 6 5 4 2 3 3 3 3 3 2 2 3 3 2 1 2 1 0 1 2 2 3 1 5 2 2 1 2 3 2 5 1 3 4 1 1 3 4 2 3
16 15 15 15 15 15 16 14 13 12 11 12 12 12 12 12 14 13 12 11 11 11 10 10 8 8 7 8 7 6 6 6 5 6 6 6 5 5 5 5 5 4 5 5 5 7 5 4 4 2 3 2 1 1 1 1 3 1 2 2 0 1 1 1 1 2 1 3 3 4 4 2 2 1 1 3 1 2 2 2 4 4 4 4 6
14 16 15 14 13 14 14 14 13 12 13 12 12 11 12 12 13 13 13 12 10 11 11 10 9 8 7 7 7 6 6 6 6 6 6 6 5 5 6 5 5 5 6 4 5 6 5 5 4 4 3 2 2 2 1 1 0 2 2 2 3 1 0 1 2 2 2 3 1 3 4 3 3 3 1 3 2 1 2 3 1 2 5 2 3
14 15 15 16 15 15 14 14 14 13 13 13 11 11 11 12 13 13 13 12 11 11 11 11 9 8 8 7 7 7 6 6 6 5 5 6 6 6 5 5 5 5 5 5 4 4 5 5 5 5 4 4 3 3 3 2 2 3 1 1 2 3 2 2 3 3 3 1 2 3 2 4 3 3 4 3 3 2 2 3 2 3 4 5 2
16 16 16 17 16 15 14 14 13 13 13 12 12 11 11 12 13 13 13 13 12 11 10 11 9 8 8 7 7 7 6 6 5 4 3 4 5 5 5 3 3 4 4 5 5 5 5 5 5 5 5 5 4 4 3 3 4 3 2 2 3 2 2 2 3 3 3 3 2 2 2 4 3 3 5 3 2 4 2 2 1 1 2 3 3
15 16 15 16 16 16 14 14 13 14 14 13 12 12 12 12 13 14 13 13 13 12 11 10 10 9 9 9 8 8 7 7 7 8 8 6 5 4 5 6 5 4 5 5 5 5 5 5 5 6 5 4 4 4 4 3 3 4 4 3 3 3 1 2 3 3 4 4 3 1 2 3 3 2 3 5 3 2 4 3 2 2 2 3 4
16 16 16 16 15 15 14 14 14 14 14 13 13 12 11 11 13 14 14 14 13 13 12 10 10 10 10 10 9 8 8 8 7 8 7 7 6 5 5 5 5 6 4 5 5 6 5 6 5 4 6 6 5 5 5 5 4 4 4 3 4 3 2 3 3 4 4 3 4 4 2 3 2 3 5 4 3 2 3 4 3 2 0 3 3
15 15 15 16 15 15 14 14 14 13 13 13 14 13 13 13 13 14 14 15 14 13 12 10 10 9 9 10 10 9 8 7 6 6 7 6 7 7 6 5 6 5 6 3 5 5 6 6 5 6 5 5 6 5 5 4 5 5 4 5 4 4 4 4 4 5 5 4 3 3 3 4 4 4 4 4 3 2 3 4 4 3 3 3 4
14 13 14 16 17 18 17 15 15 15 14 14 16 14 15 14 13 13 14 14 13 14 13 12 11 10 9 9 10 9 8 8 7 6 7 7 7 7 7 7 6 7 6 6 5 5 6 7 7 7 7 7 7 6 6 6 5 5 5 5 4 5 5 4 5 4 5 2 2 3 3 4 4 4 4 4 4 4 5 5 4 4 2 3 3
14 14 11 13 15 17 16 15 14 13 13 13 14 15 14 13 14 14 14 15 14 13 14 12 11 11 11 11 11 10 10 9 9 9 8 8 7 6 7 6 7 5 6 7 6 6 6 6 6 6 6 5 5 5 5 5 5 5 5 4 3 3 5 5 5 5 5 4 4 4 4 5 4 5 5 5 5 5 5 6 5 5 6 5 4
15 14 10 10 10 14 15 14 13 13 13 14 13 13 14 14 12 12 12 13 14 13 11 11 10 11 12 12 12 11 10 10 10 10 10 8 8 8 7 7 8 7 6 7 7 7 6 6 6 6 5 5 5 4 6 5 5 5 6 5 6 5 5 5 5 5 5 5 4 5 5 6 6 6 6 6 6 6 6 5 4 4 4 4 3
10 15 14 12 9 10 13 14 14 14 14 14 13 13 12 14 13 12 11 11 12 12 11 11 11 11 12 11 11 11 11 11 11 10 11 10 9 9 9 9 8 8 7 6 7 7 7 7 6 5 5 5 5 5 6 5 5 5 5 6 5 6 6 6 6 6 6 5 6 5 6 6 6 7 6 6 6 6 5 5 5 4 5 5 5
13 12 16 14 14 13 8 10 9 11 12 14 13 12 12 9 12 12 12 12 12 11 10 10 10 11 12 12 11 11 12 12 11 10 12 11 10 8 7 9 9 8 8 7 7 8 7 7 6 5 6 6 5 6 6 6 5 5 6 5 5 4 5 6 6 6 6 5 6 6 6 7 6 5 5 5 5 6 5 3 4 4 5 6 5
12 12 13 14 13 12 10 11 10 9 11 11 12 11 12 11 10 12 11 11 10 9 10 11 11 11 12 12 13 12 12 12 12 11 11 11 10 11 9 8 6 9 9 7 8 7 7 7 7 7 7 7 7 7 6 7 7 6 7 7 7 7 6 6 6 6 6 6 6 6 6 6 6 6 6 6 6 5 4 5 5 5 4 4 4
11 9 9 12 10 8 6 7 8 8 8 8 7 8 9 11 10 10 11 11 11 9 10 10 11 11 11 11 11 12 12 13 13 13 13 12 10 7 9 9 7 9 7 10 9 8 7 8 7 8 7 7 7 7 7 6 8 8 7 7 7 7 7 7 7 7 7 7 7 7 7 6 6 6 6 5 4 4 5 6 6 5 5 5 5
11 11 9 8 8 9 9 8 7 6 6 7 8 8 7 9 11 11 10 10 11 10 11 11 12 11 10 11 10 11 11 12 12 11 11 11 11 12 10 8 9 11 8 8 9 9 8 8 8 8 8 7 8 8 6 7 8 8 7 6 8 7 8 7 7 8 8 8 8 8 7 7 7 6 7 6 5 5 6 6 5 5 6 6 6
12 11 11 10 9 9 9 9 8 7 4 3 5 8 9 10 10 10 9 9 8 10 11 11 11 11 11 11 10 11 11 10 9 8 9 10 10 11 11 11 10 9 8 8 8 9 9 8 9 9 8 8 7 7 7 9 9 6 3 6 6 8 8 7 7 7 7 8 8 8 8 8 8 7 7 6 6 6 5 6 5 5 4 5 6
12 13 12 13 11 10 11 11 10 10 8 5 4 5 6 7 8 8 8 9 9 10 10 10 10 10 10 10 10 10 9 8 9 9 10 9 8 7 7 8 8 9 9 10 9 7 8 9 8 8 9 9 8 9 8 6 6 6 3 1 4 8 10 8 7 7 8 8 8 7 8 8 7 9 3 4 5 5 4 4 5 5 6 6 6
12 13 13 12 12 12 10 10 10 10 11 10 8 7 8 8 7 7 7 7 8 9 10 10 10 10 9 10 10 9 8 8 9 8 8 9 8 8 8 8 7 7 7 6 6 10 9 7 8 6 7 8 8 3 6 4 3 4 4 3 1 2 7 10 8 7 8 8 8 8 7 10 3 5 4 5 4 6 3 6 5 5 6 6 6
11 11 12 11 11 12 12 12 11 10 10 9 8 8 8 8 8 7 7 6 7 8 8 9 9 9 9 10 9 9 9 10 9 9 8 8 8 8 8 6 7 8 8 7 6 7 9 8 9 9 10 8 2 7 7 7 6 5 3 4 3 3 9 11 9 7 7 9 8 9 9 6 8 8 7 8 9 8 10 10 9 8 6 6 7
8 8 8 9 10 11 11 11 11 10 10 10 9 9 8 8 9 9 7 6 6 5 7 8 8 8 9 9 8 8 8 8 9 9 9 7 7 6 7 7 9 10 8 8 9 9 7 9 8 8 8 2 8 8 9 9 8 7 5 3 6 8 9 8 8 10 8 8 8 8 7 7 6 9 6 6 8 10 11 10 10 9 10 10 9
7 7 7 6 6 6 7 7 7 7 5 4 6 7 7 6 7 8 9 10 9 7 6 7 7 8 8 8 8 8 8 7 6 7 7 9 7 6 6 6 7 7 8 9 8 8 9 9 9 8 7 5 7 12 10 10 8 7 6 4 6 9 10 9 9 8 6 7 9 7 7 7 3 13 11 10 9 10 11 13 12 11 12 12 12
7 8 9 7 6 5 6 5 5 6 6 5 3 5 4 3 4 6 9 10 10 11 10 9 8 8 7 8 7 6 8 6 6 6 7 5 5 6 7 6 6 6 7 7 9 9 8 8 8 8 3 9 8 10 10 9 7 7 6 5 6 9 10 10 9 9 8 8 7 8 7 7 8 3 8 6 5 5 6 7 8 8 9 11 14
8 7 8 8 8 6 6 5 5 3 2 2 3 2 3 2 2 4 7 8 9 9 9 8 8 8 7 7 6 6 6 7 8 6 5 4 4 5 5 4 5 6 7 7 8 9 8 8 8 8 6 8 7 10 10 9 10 8 7 5 6 8 9 10 10 10 8 8 7 8 6 8 6 9 8 10 7 5 5 6 8 9 10 10 8
8 9 8 9 8 7 6 6 7 7 6 5 4 2 1 3 4 5 5 6 7 7 5 5 6 5 4 4 3 4 5 1 3 4 5 5 4 3 4 2 1 3 4 6 7 8 8 8 7 8 8 8 8 12 9 10 10 8 8 5 5 7 8 9 8 7 6 9 11 11 8 7 7 8 9 12 11 8 6 7 9 9 10 10 10
10 8 8 6 7 7 7 6 4 5 6 7 6 4 3 3 3 4 3 2 3 4 4 3 3 4 2 4 5 4 5 8 8 7 7 7 6 4 2 1 1 1 2 3 5 4 11 10 6 8 10 9 9 11 11 11 10 10 7 4 5 6 6 7 5 9 7 4 5 8 7 4 7 7 10 11 12 10 6 7 8 9 9 9 8
11 9 9 7 6 7 6 5 6 5 5 4 7 6 5 5 5 5 5 4 3 3 4 5 5 6 6 5 5 6 6 7 8 8 6 5 4 4 4 3 3 2 3 4 8 6 5 3 5 8 9 9 9 11 13 12 12 11 8 5 5 4 3 5 3 6 7 6 9 16 11 7 7 7 9 9 10 9 6 7 8 9 9 9 7
10 9 9 8 7 6 7 6 7 7 5 2 5 6 7 6 6 6 6 6 6 5 5 6 6 6 7 8 9 7 6 6 5 5 4 5 6 5 3 4 4 4 6 7 9 7 6 6 9 11 14 12 9 10 14 13 13 13 10 5 2 2 4 3 2 5 6 5 5 10 15 10 7 5 5 6 7 7 6 6 7 8 9 9 7
10 9 9 9 8 8 7 7 7 7 6 5 5 6 8 8 8 9 10 9 8 7 8 8 8 8 8 9 10 10 8 7 8 8 8 7 6 6 6 7 7 6 7 5 7 7 7 7 8 9 9 9 9 9 12 14 15 15 15 8 4 5 4 4 4 4 3 3 2 5 9 13 11 11 9 9 8 7 5 6 7 7 7 8 8
11 10 9 8 9 9 9 9 8 6 6 7 5 6 7 8 9 10 10 9 9 8 8 8 8 9 10 10 10 10 10 10 10 9 8 8 7 8 8 7 7 7 6 6 9 8 8 7 8 7 8 9 8 9 11 15 15 15 17 13 6 7 6 6 5 3 2 1 2 5 6 10 11 11 9 9 6 5 4 6 5 5 6 6 7
10 9 8 9 10 10 10 9 9 8 8 7 6 7 7 9 9 10 9 9 9 8 8 8 9 9 9 10 11 12 11 9 10 10 10 10 9 9 9 9 7 6 7 8 8 8 9 9 8 8 9 8 11 14 8 12 14 14 14 15 8 7 7 4 4 5 6 7 7 5 5 7 10 10 10 9 7 4 6 4 5 6 10 8 6
9 9 9 9 9 9 9 9 8 9 8 7 7 9 8 9 10 9 8 7 8 9 9 10 10 9 9 8 7 10 10 10 10 10 10 10 8 8 7 8 8 8 7 8 8 8 9 8 7 6 6 7 7 8 10 9 11 12 13 14 13 10 13 7 5 7 7 6 4 5 5 11 10 9 10 10 10 8 7 4 8 10 9 9 7
9 10 9 10 9 8 8 9 9 7 8 7 6 7 7 8 8 7 8 8 9 9 10 10 9 9 9 9 10 9 10 10 10 9 8 9 8 7 6 6 6 7 6 7 5 6 6 7 8 7 6 6 6 5 6 8 7 10 12 13 13 14 14 9 6 6 5 6 4 3 4 8 10 11 10 9 9 6 4 8 11 11 11 8 4
9 10 10 9 9 8 8 8 7 7 7 7 7 8 8 8 6 6 8 8 8 9 9 9 8 8 9 9 8 8 8 9 8 8 8 8 8 7 7 7 7 7 6 6 7 7 6 7 6 6 5 5 5 5 4 4 5 5 8 8 9 12 12 12 6 6 5 5 2 2 6 9 10 11 12 11 9 7 5 9 12 12 11 3 4
9 8 9 10 10 10 9 8 6 7 6 6 7 7 8 7 6 6 7 7 8 9 8 8 8 8 9 9 9 9 9 9 9 8 8 7 7 6 6 6 6 6 6 6 5 5 6 6 6 5 5 4 3 3 3 3 1 3 4 5 3 2 7 8 5 3 3 3 4 8 10 11 11 9 7 3 1 2 7 11 12 13 7 5 5
9 8 9 8 7 7 8 7 7 6 6 5 6 5 5 4 5 5 7 6 6 7 7 8 8 8 6 7 7 8 8 8 6 7 6 5 5 4 4 5 6 4 3 0 6 6 6 7 6 5 6 5 4 4 3 4 4 4 4 4 5 5 6 7 6 5 6 2 3 4 4 7 9 10 11 8 8 5 5 4 2 5 4 4 5
8 8 9 9 9 9 8 7 6 4 5 5 5 5 3 2 3 3 5 5 5 5 5 5 6 6 6 7 7 8 7 7 6 6 5 5 6 5 6 7 7 6 2 2 2 2 3 5 5 5 5 4 4 4 6 5 6 6 6 6 7 7 7 6 6 7 8 8 7 6 7 6 5 6 6 6 3 2 3 4 3 5 4 4 4
11 11 9 8 8 9 9 8 6 5 4 4 4 4 5 2 1 3 6 4 4 3 4 6 5 4 5 5 6 6 6 6 7 9 10 9 8 5 7 8 8 6 6 5 3 7 7 5 9 8 4 4 6 7 5 5 4 5 5 6 6 5 6 5 7 9 8 8 5 3 3 2 3 3 4 4 4 4 5 5 4 5 5 5 5
11 12 11 9 9 9 9 9 7 6 5 4 5 5 5 3 3 3 1 4 4 4 5 5 4 4 5 5 5 5 5 5 6 7 9 10 15 15 11 7 6 7 13 13 12 6 4 5 8 8 7 7 7 5 7 8 6 6 6 6 7 9 8 7 11 16 8 6 4 3 3 4 5 4 4 5 5 4 4 5 5 4 4 5 6
10 11 12 10 7 9 9 9 8 6 6 6 6 6 6 5 3 2 1 2 2 4 4 5 4 4 4 3 4 5 5 5 6 7 7 8 7 9 13 13 11 8 12 14 14 15 17 16 8 7 9 13 11 10 10 6 3 4 6 7 8 9 10 11 8 7 7 3 2 3 3 4 4 4 4 5 5 5 5 5 5 5 5 5 6
Wind_Direction
160 166 161 159 157 153 152 153 157 151 139 140 152 146 152 145 148 152 150 159 152 153 156 155 151 150 150 156 145 147 149 145 168 149 151 126 135 137 146 131 139 146 147 157 137 140 105 110 110 97 90 245 347 265 88 250 98 269 151 182 270 218 260 163 60 72 97 133 143 121 133 134 153 210 173 166 162 130 141 90 88 99 100 65 53
163 163 162 162 158 158 155 157 158 153 146 153 152 148 156 151 153 151 153 153 153 151 151 151 152 158 163 154 155 146 152 169 160 169 154 123 128 129 173 128 150 148 157 161 159 163 130 94 76 73 176 43 323 292 168 172 261 294 69 281 178 324 54 30 43 335 199 148 156 123 124 151 162 173 185 157 153 136 113 116 204 143 121 99 102
165 165 164 165 161 161 158 161 158 156 155 157 152 152 158 151 153 155 155 158 152 149 156 149 156 151 160 145 154 148 161 172 170 144 129 138 149 162 132 136 166 157 161 158 177 177 135 139 130 149 104 86 37 333 235 232 271 14 272 103 322 257 111 85 110 325 116 71 76 171 136 140 159 200 143 167 150 163 153 153 136 84 98 130 115
167 166 167 165 163 162 161 164 160 159 161 155 156 154 161 154 154 159 155 156 152 151 156 150 142 141 142 150 159 162 157 138 128 137 158 138 148 171 153 160 187 162 169 170 164 156 146 133 124 118 125 161 127 239 325 263 86 293 34 20 301 256 125 96 57 35 13 172 151 163 155 136 143 147 157 140 159 175 141 140 113 120 108 153 145
168 169 171 167 167 166 165 166 164 163 164 158 161 160 164 158 156 161 159 155 155 149 150 144 137 148 142 136 142 128 137 147 158 169 139 173 162 180 145 184 181 172 165 165 159 153 163 150 139 128 148 171 194 183 214 296 219 133 91 224 258 347 88 89 75 81 74 19 24 239 86 142 135 154 133 36 164 163 101 63 91 144 117 80 89
173 173 174 166 170 163 166 169 168 168 168 163 162 164 157 155 156 160 159 157 154 154 149 150 155 157 159 160 160 164 161 170 178 168 169 178 138 109 165 174 187 170 167 178 138 155 162 151 148 146 164 168 136 213 230 218 36 290 93 38 7 27 355 104 111 110 98 89 97 88 334 56 355 28 129 19 345 77 107 117 202 110 126 148 154
178 176 177 167 171 164 166 172 170 172 167 164 161 159 152 157 158 160 159 156 154 156 156 158 159 166 169 171 169 171 170 170 177 180 162 198 120 167 215 177 177 169 165 176 148 146 161 163 155 122 201 156 161 170 290 12 262 68 47 78 5 26 18 350 75 112 61 83 64 67 49 47 33 342 91 133 71 336 325 155 127 132 137 153 157
181 174 180 169 171 166 172 170 175 169 171 163 163 154 151 155 158 159 158 159 155 158 164 168 162 168 175 176 170 176 172 165 148 153 184 195 143 163 166 160 167 157 99 204 163 159 168 172 182 168 200 142 172 155 187 197 348 91 21 45 25 20 28 31 360 18 97 71 37 351 86 76 21 57 5 42 120 157 152 141 173 152 171 123 150
182 172 180 166 174 168 172 171 176 168 165 164 162 153 154 156 158 157 157 160 155 160 167 174 167 169 172 174 171 172 162 161 146 201 161 171 148 148 161 163 164 157 163 196 186 161 183 174 180 179 190 140 200 153 170 159 144 133 173 63 47 35 31 37 11 23 16 69 29 28 355 21 84 103 147 243 337 110 165 37 62 101 71 26 37
181 176 176 167 173 169 170 172 175 167 163 163 159 157 157 159 160 162 157 162 160 164 170 173 174 167 174 178 165 169 159 157 164 157 149 161 157 153 161 162 172 172 166 177 177 178 185 185 182 193 181 172 209 136 156 144 187 208 189 40 42 40 24 355 67 50 360 16 73 339 14 39 349 5 344 57 112 348 11 170 173 123 145 86 318
182 178 175 167 173 173 170 172 173 167 164 165 161 161 158 160 162 163 161 163 159 168 169 175 177 174 173 167 169 162 151 153 151 161 156 166 165 166 167 174 185 171 158 194 182 186 180 204 179 200 202 128 229 135 195 184 183 186 162 127 73 54 19 60 10 311 99 291 234 189 274 123 20 16 33 9 8 27 36 7 345 328 68 141 84
179 177 175 170 172 178 169 174 170 169 169 167 162 160 159 162 162 164 164 163 163 164 175 173 180 179 171 168 171 161 163 157 157 160 162 165 172 166 169 179 184 179 181 174 185 185 171 207 228 153 183 168 180 210 216 217 194 148 136 186 166 106 134 3 353 355 327 281 301 171 235 75 132 292 57 139 126 36 336 65 114 326 354 97 141
179 173 177 175 174 178 173 174 165 173 170 171 166 164 160 164 162 166 167 166 169 166 172 175 181 180 173 170 169 166 168 158 164 161 162 165 173 166 171 177 185 178 192 179 185 182 165 195 194 186 170 211 55 115 219 323 345 184 132 222 89 216 178 273 287 260 317 335 323 340 330 17 300 124 180 315 102 164 234 265 2 360 281 29 353
178 171 178 174 174 179 179 168 170 175 171 177 171 167 162 166 164 169 167 169 169 169 176 174 179 178 177 174 166 172 174 165 166 173 170 169 176 182 176 187 180 190 188 183 193 175 180 177 184 183 165 173 168 199 276 246 226 299 178 209 222 165 359 286 262 286 262 236 270 329 318 325 321 327 5 253 316 16 320 30 15 324 279 303 159
179 172 180 175 178 181 180 170 174 175 179 177 174 169 162 163 166 169 167 170 171 175 173 175 175 177 176 180 172 172 177 178 180 178 168 175 178 176 190 180 186 184 182 182 180 175 184 169 179 181 170 178 178 193 204 196 205 236 268 241 287 162 229 283 293 299 290 351 257 227 302 293 359 301 294 8 331 8 357 43 29 340 332 306 243
180 175 181 176 178 181 180 175 172 176 181 179 178 169 168 165 167 171 169 170 173 177 178 175 176 175 176 184 180 176 174 183 167 173 171 181 177 180 174 200 181 168 177 167 180 182 180 173 177 185 175 176 187 198 217 202 188 227 244 225 243 244 179 227 272 282 275 262 291 331 284 285 290 324 354 313 357 6 338 3 18 306 322 316 325
179 177 181 176 177 182 181 176 176 178 182 183 178 174 175 165 169 171 171 174 173 180 181 179 176 175 177 183 187 177 179 188 178 182 185 183 173 200 179 187 182 185 170 177 181 177 179 196 187 183 179 190 187 193 203 205 205 226 212 224 252 251 213 242 272 284 291 298 283 281 304 311 307 322 305 301 10 6 305 341 294 308 41 294 307
181 179 179 179 174 180 183 180 184 181 183 181 175 180 176 175 173 172 174 175 177 180 182 184 181 179 179 184 191 191 188 193 189 176 193 174 184 197 194 178 190 179 202 166 175 174 181 197 194 195 186 192 196 195 194 199 201 229 212 227 231 261 254 248 250 269 270 269 280 279 284 265 249 220 221 232 220 213 279 279 290 316 87 284 316
177 179 181 176 176 182 191 185 185 180 184 181 176 185 182 182 180 178 179 179 178 180 181 184 186 186 181 185 186 193 190 199 194 178 188 188 193 181 206 176 191 169 181 177 179 178 181 183 205 195 194 195 193 205 194 201 205 228 221 221 212 220 239 244 247 241 254 255 278 284 281 285 300 297 323 281 286 277 268 276 289 284 274 316 306
172 175 180 179 179 181 190 191 184 183 186 184 183 187 187 186 181 184 179 179 182 181 175 185 185 191 185 183 186 188 191 196 183 192 196 188 207 184 194 182 200 174 183 184 200 202 184 191 193 210 198 196 193 202 198 198 207 227 232 237 210 198 223 240 259 257 259 240 235 252 264 280 292 290 285 296 279 245 249 269 267 277 282 268 251
179 173 172 180 177 180 186 191 186 182 187 189 187 188 187 186 181 188 178 180 183 186 176 185 184 185 184 189 189 189 190 193 193 188 206 185 197 206 190 195 185 199 183 183 198 206 200 199 211 205 207 197 203 206 206 203 205 214 232 244 268 205 229 238 236 262 269 260 245 259 268 265 277 278 271 277 282 275 246 230 229 232 241 230 240
178 169 162 171 174 185 186 190 187 183 184 194 189 188 186 186 174 190 179 187 182 184 182 179 191 183 189 189 191 190 193 194 198 186 203 188 190 200 193 206 185 193 199 195 190 196 200 195 210 199 211 207 192 202 218 206 208 212 226 216 217 229 239 248 261 248 245 261 243 238 252 252 235 240 258 258 260 267 263 270 261 260 254 250 231
172 174 169 166 178 204 195 189 192 183 184 192 194 190 189 181 171 189 183 192 191 181 183 182 188 186 192 190 191 191 195 201 202 194 201 195 192 194 192 202 202 186 192 209 184 206 185 197 205 199 200 213 193 208 220 225 221 218 229 235 229 211 220 237 235 238 246 247 253 248 245 242 242 237 231 246 254 263 285 291 297 305 302 299 290
176 197 184 179 183 191 203 189 197 188 187 195 196 193 183 180 172 182 187 186 199 179 178 180 184 193 194 192 192 196 196 198 204 206 204 204 194 183 195 199 205 198 179 197 199 198 178 192 205 194 192 210 204 215 224 217 224 226 232 234 254 250 235 233 239 247 242 239 247 246 256 262 259 256 263 278 285 280 272 265 271 264 268 265 269
182 186 186 178 182 179 190 196 189 186 187 200 200 198 182 177 174 181 187 187 207 177 178 178 186 195 197 198 196 199 197 198 206 204 211 213 201 188 193 198 206 236 173 190 190 206 184 186 206 200 200 206 208 213 220 226 219 218 224 226 224 224 231 238 244 244 243 247 249 253 249 251 260 260 247 245 253 263 267 268 266 263 255 266 267
186 163 168 169 154 135 134 157 167 182 186 195 197 198 194 172 181 183 183 190 207 176 179 183 191 196 195 205 203 204 202 200 206 208 203 204 209 187 192 210 208 221 203 189 179 200 191 195 212 209 202 202 209 212 214 231 235 221 217 228 222 224 225 226 231 229 231 234 236 232 239 244 248 245 259 264 274 272 273 269 274 281 282 284 280
175 165 158 144 139 133 124 116 131 143 166 186 182 189 188 176 186 188 184 187 194 182 182 186 191 198 193 199 204 211 210 204 204 216 211 202 198 198 198 171 205 225 209 212 187 187 197 201 203 217 211 196 208 213 205 218 232 238 246 231 237 229 229 232 228 237 238 231 233 234 227 235 241 240 242 243 240 242 254 267 266 264 265 262 264
174 176 176 171 159 162 154 145 140 123 111 96 167 176 175 178 182 177 179 183 186 185 185 187 192 192 195 199 198 206 214 214 206 212 231 221 207 202 197 194 198 207 217 215 223 187 194 202 202 213 214 212 194 222 207 219 229 219 190 286 310 271 250 236 238 238 241 244 237 235 237 224 227 231 232 235 236 247 245 253 252 257 270 279 287
179 181 182 183 178 172 175 173 174 170 177 182 165 171 179 177 185 187 190 187 186 187 188 193 197 199 191 197 197 201 209 210 210 203 215 232 228 220 207 202 200 209 208 207 211 242 216 203 191 205 216 223 208 210 213 216 236 233 229 159 231 293 284 254 248 249 242 246 253 250 246 246 223 226 226 357 350 10 330 284 280 281 272 271 275
186 186 184 185 188 182 179 172 176 179 173 175 184 180 178 183 184 190 192 188 191 193 192 195 198 200 194 194 198 197 199 209 213 203 208 216 224 216 215 210 210 214 230 232 214 208 227 222 207 174 234 228 219 204 50 354 219 219 207 233 223 252 281 274 251 246 252 253 254 255 254 248 191 206 175 196 233 255 262 284 285 295 293 288 286
182 180 182 187 187 190 191 188 183 180 176 178 178 182 185 186 186 191 195 187 194 196 198 198 201 202 196 191 193 196 194 200 201 206 204 212 218 215 222 205 208 216 216 220 225 226 226 223 229 209 208 224 205 51 20 50 45 67 240 210 214 232 254 262 263 252 257 263 257 251 251 183 146 181 192 201 215 211 224 231 244 243 246 253 266
159 160 165 174 182 188 191 193 194 196 193 189 189 195 195 193 189 197 202 208 192 194 210 204 199 197 193 188 187 181 182 187 197 195 197 201 201 212 205 206 207 202 206 214 210 218 222 226 224 229 229 193 75 39 29 26 27 17 21 284 253 240 239 249 262 265 257 256 260 269 266 256 211 221 239 233 212 225 228 232 237 247 255 253 249
127 113 137 149 151 156 161 164 173 183 173 169 186 195 201 200 206 202 200 207 196 184 192 212 214 204 197 191 193 185 172 178 190 185 176 184 182 178 178 181 192 202 202 209 215 211 211 223 234 230 232 106 78 34 13 18 17 12 15 312 254 258 262 251 248 255 263 281 278 274 283 277 282 162 193 208 227 220 221 227 224 229 234 239 246
138 136 128 111 105 114 131 145 136 157 162 166 162 219 218 215 231 232 215 208 206 203 200 198 203 211 208 205 191 205 187 188 199 180 213 175 176 186 196 199 201 202 213 210 213 213 213 212 221 227 122 74 63 24 22 9 8 3 6 338 263 263 261 266 274 274 266 255 268 272 259 265 282 317 18 356 315 301 258 220 228 230 238 231 226
99 110 113 100 105 120 136 157 180 173 129 189 204 179 91 147 227 228 220 218 213 206 206 204 203 203 206 220 188 212 243 220 207 194 194 187 149 196 174 185 196 205 204 209 219 210 209 204 205 210 142 91 59 28 23 10 7 355 350 302 271 268 263 258 252 255 265 269 255 268 294 298 14 46 22 2 9 358 323 311 292 283 275 275 263
119 101 102 122 133 134 131 118 126 153 150 146 119 120 212 229 231 225 235 228 222 214 213 206 205 192 199 177 214 197 207 242 242 201 188 176 181 163 168 168 223 249 254 223 213 219 206 202 197 191 132 87 64 32 19 18 4 349 329 277 258 264 271 274 275 284 353 360 353 341 327 15 64 41 14 4 11 349 333 308 299 289 285 285 285
118 126 123 111 119 118 109 130 144 129 135 139 133 130 128 154 190 208 213 190 204 199 181 137 106 103 80 150 168 217 206 192 203 207 199 191 182 164 130 119 100 346 288 291 314 359 17 359 359 69 81 82 63 30 22 21 8 355 319 280 269 266 279 292 299 50 67 68 37 21 40 25 46 40 15 3 4 350 319 310 301 305 306 304 311
117 117 123 130 127 128 139 124 110 89 70 93 109 117 126 133 144 162 166 147 137 188 187 156 145 146 121 116 121 161 164 171 172 180 176 163 129 127 158 133 111 100 46 65 77 51 93 105 58 70 80 81 66 39 25 18 13 3 338 297 285 304 301 264 355 54 53 42 44 45 37 39 35 29 3 5 354 341 323 313 307 303 306 305 311
116 131 140 143 142 136 130 124 130 133 126 90 89 115 117 112 116 127 131 132 133 127 137 149 156 156 148 138 143 132 108 98 112 123 130 140 136 138 101 73 52 47 58 81 103 95 74 58 57 63 62 68 62 42 26 17 18 13 359 310 298 245 267 299 20 52 37 22 59 49 47 34 35 20 5 6 2 347 331 316 315 305 297 304 334
111 112 106 105 109 121 125 115 96 88 105 94 80 104 105 112 109 102 97 95 95 96 101 98 111 120 125 133 138 132 117 110 106 96 94 94 101 97 98 82 61 61 69 63 92 99 86 69 69 67 60 55 58 49 29 20 24 18 9 353 5 356 346 13 13 50 63 317 100 86 46 26 13 12 3 1 356 355 325 323 314 309 321 325 337
106 107 117 129 125 109 101 101 105 106 93 90 97 106 109 106 101 92 94 95 96 92 92 103 113 116 118 121 125 124 115 100 84 84 81 80 70 81 78 78 71 62 64 67 76 81 74 64 61 63 70 61 52 52 38 27 26 24 20 9 36 24 20 36 337 69 85 112 26 47 51 34 16 7 352 347 336 328 306 304 335 349 334 321 321
111 117 118 110 105 110 111 109 108 108 100 92 97 93 100 101 96 98 100 100 95 87 88 79 86 94 105 104 100 102 98 100 102 97 98 93 92 90 86 81 76 69 66 69 76 77 77 74 75 70 67 65 53 52 48 37 30 27 27 25 26 23 351 62 72 75 57 52 32 34 41 24 18 355 333 330 329 308 287 297 5 313 299 315 298
111 107 107 114 108 104 102 103 95 86 83 88 96 100 100 95 88 85 80 78 91 101 90 77 68 59 42 39 68 94 97 99 100 102 109 111 108 106 106 105 101 88 79 79 77 81 83 81 76 67 77 73 68 63 51 51 38 33 27 26 24 21 1 14 48 56 52 56 51 28 23 16 353 332 313 305 316 329 254 9 312 306 291 286 272
108 112 110 95 92 93 88 81 61 74 73 69 80 88 90 89 94 105 100 92 81 80 85 86 87 82 85 86 84 78 92 103 107 110 112 110 111 113 113 108 106 101 105 102 103 102 106 103 94 96 94 98 102 92 71 63 54 42 30 25 21 17 17 1 20 51 59 65 52 26 356 341 316 294 281 271 287 324 348 302 291 295 303 283 291
113 106 94 99 93 94 98 95 78 71 73 72 78 89 88 83 86 100 104 105 106 106 100 97 91 96 99 90 85 90 86 84 85 93 102 107 108 110 109 113 107 108 111 113 111 110 108 101 97 89 87 93 94 91 77 86 86 81 56 32 22 20 12 2 15 38 22 49 77 250 254 264 271 278 278 259 243 252 264 279 280 283 282 293 12
125 119 118 111 96 80 69 77 85 88 77 72 75 76 82 85 98 99 103 110 116 118 115 115 122 119 114 117 108 96 89 86 86 78 78 86 98 104 110 119 126 122 122 125 123 120 124 119 117 113 108 103 111 122 135 87 48 134 111 106 81 68 20 355 337 24 294 262 247 256 254 252 257 250 264 282 335 287 269 264 273 274 302 26 16
84 96 103 96 99 96 91 80 55 63 84 87 75 77 76 82 84 101 98 103 116 127 135 135 127 123 124 111 114 118 118 113 113 110 97 76 77 82 73 61 73 82 36 194 137 149 146 144 139 151 141 130 129 119 80 50 8 355 19 32 26 12 28 10 354 13 349 325 264 290 306 291 279 280 275 284 266 249 265 281 320 333 11 26 7
92 92 75 82 81 81 79 75 76 58 64 78 104 106 121 129 137 158 113 128 137 146 133 135 133 138 141 136 122 129 136 128 116 85 85 108 127 120 67 47 28 9 20 61 101 138 127 142 151 141 150 136 135 85 57 40 20 4 2 13 26 16 6 6 355 359 343 319 309 284 255 256 253 245 233 223 219 13 333 331 8 345 343 43 1
94 79 77 85 91 87 83 86 79 69 64 77 84 101 94 87 329 101 129 160 159 172 143 145 144 141 118 126 148 156 126 114 89 77 63 39 20 53 84 71 41 25 11 355 26 40 6 36 45 30 18 177 122 92 76 47 38 12 7 8 24 18 357 340 359 358 327 303 286 297 300 311 312 352 355 358 351 349 12 335 9 4 332 19 356
105 102 89 78 74 84 85 73 67 72 74 71 81 56 35 63 56 1 131 171 169 175 161 150 141 136 147 171 164 123 106 123 122 107 85 67 52 45 30 52 74 55 55 48 59 61 14 26 69 50 35 37 74 91 85 65 28 0 347 336 322 320 318 307 318 315 296 294 301 320 340 19 350 9 5 359 355 357 9 349 354 357 338 24 349
112 111 114 99 85 88 91 86 79 67 69 67 52 43 31 44 14 104 244 134 197 187 181 147 150 168 186 202 131 130 136 109 107 116 100 98 92 60 46 45 59 61 65 63 58 51 45 40 43 88 65 66 79 79 71 61 30 348 317 317 321 315 313 308 321 341 306 263 344 3 15 19 356 5 18 2 351 355 9 351 351 349 351 5 2